Flag for Norway

Past Weather in Hellesøy, Norway — Yesterday and Last 2 Weeks

Now
54 °F

Scattered showers. Broken clouds.


Feels Like: 47 °F
Forecast: 55 / 50 °F
Wind: 30 mph from North

Location: Bergen / Flesland

Current Time: Jul 6, 2020 at 8:47:01 am

Latest Report: Jul 6, 2020 at 7:50 am


Visibility: N/A

Pressure: 29.18 "Hg

Humidity: 88%

Dew Point: 50 °F

Location of HellesøyLocation

Past Weather in Hellesøy — Graph

°F

Hellesøy Temperature Yesterday

Maximum temperature yesterday: 54 °F (at 12:20 am)
Minimum temperature yesterday: 52 °F (at 12:50 am)
Average temperature yesterday: 53 °F

High & Low Weather Summary for the Past Weeks

 TemperatureHumidityPressure
High84 °F (Jun 27, 3:50 pm)100% (Jun 21, 7:20 am)30.33 "Hg (Jun 21, 7:20 am)
Low45 °F (Jul 4, 3:20 am)25% (Jun 25, 6:50 pm)29.00 "Hg (Jul 5, 12:50 pm)
Average60 °F72%29.76 "Hg
* Reported Jun 21 7:20 am — Jul 6 7:20 am, Hellesøy. Weather by CustomWeather, © 2020

Note: Actual official high and low records may vary slightly from our data, if they occured in-between our weather recording intervals... More about our weather records

Hellesøy Weather History for the Previous 24 Hours

Scroll right to see more
 ConditionsComfort  
Time TempWeatherWind HumidityBarometerVisibility
7:20 am
Mon, Jul 6
54 °FSprinkles. Broken clouds.28 mph94%29.15 "HgN/A
6:50 am54 °FLight rain. Broken clouds.24 mph100%29.12 "HgN/A
6:20 am54 °FLight rain. Broken clouds.20 mph100%29.09 "HgN/A
5:50 am54 °FLight rain. Broken clouds.17 mph100%29.09 "HgN/A
5:20 am54 °FLight rain. Broken clouds.13 mph100%29.09 "HgN/A
4:50 am54 °FLight rain. Broken clouds.7 mph100%29.09 "HgN/A
4:20 am54 °FLight rain. Partly cloudy.15 mph94%29.12 "HgN/A
3:50 am54 °FLight rain. Partly cloudy.18 mph94%29.12 "Hg4 mi
3:20 am52 °FRain. Partly cloudy.13 mph100%29.12 "HgN/A
2:50 am52 °FLight rain. Partly cloudy.13 mph100%29.15 "HgN/A
2:20 am52 °FRain. Partly cloudy.13 mph100%29.15 "HgN/A
1:50 am52 °FLight rain. Partly cloudy.12 mph94%29.15 "HgN/A
1:20 am52 °FRain. Partly cloudy.20 mph94%29.15 "HgN/A
12:50 am52 °FRain. Partly cloudy.17 mph94%29.15 "Hg5 mi
12:20 am52 °FRain. Partly cloudy.14 mph94%29.18 "HgN/A
11:50 pm
Sun, Jul 5
52 °FLight rain. Partly cloudy.14 mph94%29.18 "HgN/A
11:20 pm52 °FLight rain. Partly cloudy.15 mph94%29.18 "HgN/A
10:50 pm52 °FLight rain. Broken clouds.12 mph94%29.18 "HgN/A
10:20 pm52 °FSprinkles. Broken clouds.9 mph94%29.18 "HgN/A
9:50 pm52 °FSprinkles. Broken clouds.9 mph94%29.18 "HgN/A
9:20 pm52 °FSprinkles. Broken clouds.9 mph94%29.15 "HgN/A
8:50 pm52 °FSprinkles. Broken clouds.9 mph100%29.15 "HgN/A
8:20 pm52 °FSprinkles. Broken clouds.9 mph94%29.15 "HgN/A
7:50 pm52 °FSprinkles. Broken clouds.10 mph100%29.15 "HgN/A
7:20 pm54 °FSprinkles. Broken clouds.12 mph94%29.12 "HgN/A
6:50 pm54 °FRain showers. Broken clouds.12 mph94%29.12 "HgN/A
6:20 pm54 °FSprinkles. Broken clouds.9 mph94%29.12 "HgN/A
5:50 pm54 °FSprinkles. Broken clouds.9 mph94%29.09 "HgN/A
5:20 pm54 °FSprinkles. Broken clouds.8 mph100%29.09 "HgN/A
4:50 pm54 °FSprinkles. Broken clouds.7 mph100%29.09 "HgN/A
4:20 pm54 °FLight rain. Broken clouds.5 mph100%29.06 "HgN/A
3:50 pm54 °FLight rain. Broken clouds.8 mph100%29.03 "HgN/A
3:20 pm54 °FLight rain. Broken clouds.7 mph100%29.03 "HgN/A
2:50 pm54 °FDrizzle. Broken clouds.8 mph100%29.00 "Hg6 mi
2:20 pm54 °FLight rain. Broken clouds.10 mph100%29.00 "Hg5 mi
1:50 pm54 °FRain. Fog.8 mph100%29.00 "Hg1 mi
1:20 pm54 °FRain. Fog.7 mph94%29.00 "Hg2 mi
12:50 pm54 °FLight rain. Fog.6 mph94%29.00 "Hg2 mi
12:20 pm54 °FRain. Fog.5 mph94%29.03 "Hg2 mi
11:50 am54 °FLight rain. Broken clouds.6 mph94%29.03 "Hg6 mi
11:20 am54 °FLight rain. Partly sunny.9 mph88%29.03 "HgN/A
10:50 am54 °FLight rain. Broken clouds.9 mph94%29.06 "HgN/A
10:20 am52 °FLight rain. Broken clouds.9 mph94%29.09 "HgN/A
9:50 am52 °FRain. Partly sunny.7 mph100%29.12 "HgN/A
9:20 am52 °FRain. Broken clouds.6 mph100%29.18 "HgN/A
8:50 am52 °FRain. Broken clouds.6 mph100%29.18 "Hg6 mi
8:20 am52 °FLight rain. Broken clouds.5 mph94%29.21 "HgN/A
Weather by CustomWeather, © 2020

See weather overview